Regional Weather Roundup
Issued by NWS Green Bay, WI

Home | Current Version | Previous Version | Graphics & Text | Print | Product List | Glossary Off
Versions: 1 2 3 4 5 6 7 8 9 10 11 12 13 14 15 16 17 18 19 20 21 22 23 24 25 26 27 28 29 30 31 32 33 34 35 36 37 38 39 40 41 42 43 44 45 46 47 48 49 50

000
ASUS43 KGRB 061911
RWRGRB

NORTH-CENTRAL AND NORTHEAST WISCONSIN REGIONAL WEATHER ROUNDUP
NATIONAL WEATHER SERVICE GREEN BAY WI
200 PM CDT MON JUL 06 2015

WIZ005-009-010>012-018-019-062000-
NORTH CENTRAL WISCONSIN

CITY           SKY/WX    TMP DP  RH WIND       PRES   REMARKS
IRONWOOD       CLOUDY    55  54  94 N10       29.87S
MANITOWISH WTR HVY RAIN  62  62 100 NW16G26   29.83R
ARBOR VITAE    LGT RAIN  72  70  93 SW3       29.82S
EAGLE RIVER    CLOUDY    70  68  94 SW5       29.82S
LAND O LAKES   LGT RAIN  70  69  97 S3        29.82F
RHINELANDER    CLOUDY    72  67  84 SW7       29.82F
PHILLIPS       CLOUDY    70  68  94 SW7       29.81S
ANTIGO         LGT RAIN  73  70  91 S12       29.83F
TOMAHAWK       HVY RAIN  70  67  92 NW8       29.81F VSB 3/4
MERRILL        CLOUDY    73  70  91 S7        29.81F
$$

WIZ013-073-062000-
NORTHEAST WISCONSIN

CITY           SKY/WX    TMP DP  RH WIND       PRES   REMARKS
IRON MOUNTAIN  CLOUDY    70  68  93 S7        29.80R FOG
MARINETTE      CLOUDY    73  66  78 S12       29.80F
OCONTO         CLOUDY    77  75  94 SW5       29.81F
$$

WIZ017-030-035>037-045-062000-
CENTRAL WISCONSIN

CITY           SKY/WX    TMP DP  RH WIND       PRES   REMARKS
MEDFORD        LGT RAIN  70  69  96 CALM      29.80F
WAUSAU         LGT RAIN  75  69  81 S9        29.80F
MOSINEE        NOT AVBL
MARSHFIELD     LGT RAIN  75  68  78 SW9       29.81F
WISC RAPIDS    CLOUDY    78  68  71 W6        29.82F
STEVENS POINT  CLOUDY    76  68  77 SW10      29.82F
WAUPACA        CLOUDY    82  71  68 SW10      29.81F
SHAWANO        CLOUDY    78  71  79 SW6       29.81F
CLINTONVILLE   CLOUDY    77  68  73 S8        29.81F
$$

WIZ038-039-048-051-062000-
FOX VALLEY

CITY           SKY/WX    TMP DP  RH WIND       PRES   REMARKS
NWS GREEN BAY  CLOUDY    78  71  79 SW7       29.82F
APPLETON       PTSUNNY   79  68  69 SW14G22   29.84F
OSHKOSH        CLOUDY    80  69  69 S13       29.81F
FOND DU LAC    LGT RAIN  75  71  87 S9        29.83F
$$

WIZ022-050-052-062000-
EAST CENTRAL WISCONSIN

CITY           SKY/WX    TMP DP  RH WIND       PRES   REMARKS
STURGEON BAY   CLOUDY    70  63  78 S14       29.85F
MANITOWOC      CLOUDY    70  64  81 MISG      29.86F HAZE
SHEBOYGAN      CLOUDY    76  69  79 S14       29.86F HAZE
$$

LMZ563-521-522-541>543-062000-
LAKESHORE

STATION/POSITION TIME  TEMP    WIND        PRES    VSBY  WAVE
                       AIR SEA DIR/SP/G                  HT/PER
                 (UTC) (F)     (DEG/KT/KT) (MB)    (MI)  (FT/S)
SHEBOYGAN LKSHOR 1900   64     170/ 19/ 20 1011.3F
KEWAUNEE LKSHORE 1800   61     180/ 13/ 15 1011.1F
ALGOMA MARINA    1811          220/ 12/ 14   N/A
TWO RIVERS CG    1825   60 64              1012.1   3 1/2  3
NORTHPORT PIER   1820   63     160/  9/ 18 1010.8F
N MID LAKE BUOY  1850   59 56  200/ 16/ 17 1010.7F         3/ 4
S GREEN BAY BUOY 1800   72 69  190/  4/  6 1011.7
SISTER BAY LKSHO 1844   68     170/ 11/ 14   N/A
CHAMBERS ISLAND  1800   74     150/  4/ 11 1010.5F
MENOMINEE LKSHOR 1800   73     180/  6/  8 1011.0F
$$



USA.gov is the U.S. government's official web portal to all federal, state and local government web resources and services.